Список аэропортов
Фактическая погода:

23 апреля, 12:25
Температура: +9°C (+6.0*)
Ветер: сев.-западный 6 м/с
Давление: *770 мм
неб. 750 м
Время (МСК)Темп. СВетерВлажностьДавлениеОблачностьОсадки
09:00+7СЗ, 4 м/с60%1026 гПаоблачно
10:00+8СЗ, 5 м/с59%1026 гПаоблачно
11:00+8СЗ, 6 м/с66%1026 гПаоблачносл. дождь
12:00+9СЗ, 7 м/с62%1026 гПаоблачносл. дождь
13:00+9СЗ, 7 м/с60%1026 гПаоблачно
14:00+10СЗ, 7 м/с59%1026 гПаоблачно
15:00+9СЗ, 7 м/с59%1026 гПаоблачно
16:00+10СЗ, 7 м/с60%1026 гПаоблачно
17:00+10СЗ, 6 м/с59%1025 гПаоблачно
18:00+10СЗ, 6 м/с59%1025 гПаоблачно
19:00+9СЗ, 5 м/с60%1024 гПаоблачно
20:00+9З, 4 м/с62%1024 гПаоблачно
21:00+8З, 4 м/с64%1024 гПаоблачно
22:00+8З, 4 м/с63%1023 гПаоблачно
23:00+8ЮЗ, 4 м/с59%1023 гПаоблачно
24 апреля
00:00+9Ю, 4 м/с55%1022 гПаоблачно
01:00+9Ю, 5 м/с56%1021 гПаоблачно
02:00+9Ю, 6 м/с59%1020 гПаоблачно
03:00+9Ю, 7 м/с63%1019 гПаоблачно
04:00+8ЮЗ, 7 м/с63%1018 гПаоблачно
05:00+9ЮЗ, 7 м/с61%1017 гПаоблачно
06:00+9ЮЗ, 8 м/с58%1016 гПаоблачно
07:00+9ЮЗ, 8 м/с58%1015 гПаоблачно
08:00+9ЮЗ, 7 м/с60%1014 гПаоблачно
09:00+9ЮЗ, 7 м/с71%1014 гПаоблачносл. дождь
10:00+10ЮЗ, 8 м/с78%1013 гПаоблачно
11:00+11ЮЗ, 8 м/с80%1012 гПаоблачно
12:00+12ЮЗ, 8 м/с71%1012 гПаоблачносл. дождь
13:00+12З, 9 м/с65%1012 гПаоблачно
14:00+12З, 8 м/с70%1011 гПаоблачносл. дождь
15:00+12З, 8 м/с69%1011 гПаоблачносл. дождь
16:00+12З, 7 м/с65%1010 гПаоблачносл. дождь
17:00+12З, 8 м/с65%1009 гПаоблачно
18:00+11З, 7 м/с69%1008 гПаоблачно
19:00+11ЮЗ, 7 м/с73%1007 гПаоблачнодождь
20:00+10З, 6 м/с76%1007 гПаоблачнодождь
21:00+10СЗ, 5 м/с72%1007 гПаоблачнодождь
22:00+9СЗ, 2 м/с65%1006 гПаоблачнодождь
23:00+9З, 2 м/с70%1005 гПаоблачносл. дождь
25 апреля
00:00+9ЮЗ, 3 м/с73%1005 гПаоблачнодождь
01:00+9З, 7 м/с70%1004 гПаоблачнодождь
02:00+8З, 7 м/с56%1004 гПаоблачносл. дождь
03:00+8З, 7 м/с55%1003 гПаоблачно
04:00+6З, 6 м/с58%1003 гПамалооблачно
05:00+6З, 6 м/с66%1002 гПас прояснениями
06:00+5З, 6 м/с66%1002 гПас прояснениямисл. дождь
07:00+6З, 6 м/с66%1002 гПаоблачно
08:00+5З, 4 м/с77%1002 гПас прояснениямисл. дождь
09:00+6З, 4 м/с78%1002 гПас прояснениями